Regional Weather Roundup
Issued by NWS

Home | Current Version | Previous Version | Text Only | Print | Product List | Glossary On
Versions: 1 2 3 4 5 6 7 8 9 10 11 12 13 14 15 16 17 18 19 20 21 22 23 24 25 26 27 28 29 30 31 32 33 34 35 36 37 38 39 40 41 42 43 44 45 46 47 48 49 50
000
ASUS45 KBOU 090807
RWRCO

WEATHER ROUNDUP FOR COLORADO
NATIONAL WEATHER SERVICE DENVER/BOULDER CO
100 AM MST TUE FEB 09 2016

NOTE: "FAIR" INDICATES FEW OR NO CLOUDS BELOW 12000 FEET WITH NO
SIGNIFICANT WEATHER AND/OR OBSTRUCTIONS TO VISIBILITY.

COZ001>005-013-030-031-090900-
...NORTHWEST COLORADO...

CITY           SKY/WX    TMP DP  RH WIND       PRES   REMARKS
CRAIG          CLOUDY    -4  -7  87 CALM      30.54S
HAYDEN         CLOUDY    18  10  73 E12       30.51F WCI   5
MEEKER         CLOUDY     8   5  87 CALM      30.54R
MOUNT WERNER   NOT AVBL
STEAMBOAT SPGS CLOUDY    13  12  94 CALM      30.53S
WALDEN         CLOUDY    10   5  79 CALM      30.46F
$$

COZ006>008-011-090900-
...WEST CENTRAL VALLEYS...

CITY           SKY/WX    TMP DP  RH WIND       PRES   REMARKS
GRAND JUNCTION CLOUDY    19  19 100 E5        30.52F WCI  12
MONTROSE       CLOUDY    19  14  81 SE7       30.54S WCI  10
EAGLE          CLOUDY    12  10  92 S3        30.57S
RIFLE          CLOUDY    17  11  77 E3        30.55R
DELTA          CLOUDY    25  19  79 CALM      30.54S
NUCLA          CLOUDY    27  21  80 E10       30.52S WCI  17
$$

COZ017>023-064>068-090900-
...SOUTHWEST COLORADO...

CITY           SKY/WX    TMP DP  RH WIND       PRES   REMARKS
DURANGO        CLOUDY    20  15  81 CALM      30.42S
CORTEZ         CLOUDY    27  19  72 N5        30.44S WCI  22
PAGOSA SPRINGS CLOUDY    20  20  98 CALM      30.44S
TELLURIDE      CLOUDY    27   6  42 SE7       30.50S WCI  19
WOLF CREEK PAS CLOUDY    23   0  36 SW5       30.53F WCI  17
$$

COZ009-010-012-014-032>034-037-058>063-090900-
...CENTRAL COLORADO...

CITY           SKY/WX    TMP DP  RH WIND       PRES   REMARKS
ASPEN          CLOUDY    18  10  71 S7        30.50S WCI   9
BUENA VISTA    CLOUDY    32  16  50 NW16G25   30.40F WCI  21
COPPER MTN     CLOUDY    23  10  58 W16G24    30.49F WCI  10
BERTHOUD PASS  FAIR      10   0  61 NW21G28   30.44F WCI  -9
COTTONWOOD PAS CLOUDY    34   0  23 NW12G24   30.42F WCI  25
GUNNISON       CLOUDY     1 N/A N/A CALM      30.56S
KREMMLING      CLOUDY     3   0  85 CALM      30.54F
LEADVILLE      CLOUDY    14  10  84 NE7       30.46F WCI   4
MONARCH PASS   CLOUDY    18  10  73 MISG      30.57F
SALIDA         NOT AVBL
SUNLIGHT       CLOUDY    23  18  80 W8          N/A  WCI  14
WILKERSON PASS CLOUDY    28  -6  22 NW15G28   30.43F WCI  17
$$

COZ069>075-090900-
...SAN LUIS VALLEY/SANGRE DE CRISTO MOUNTAINS...

CITY           SKY/WX    TMP DP  RH WIND       PRES   REMARKS
ALAMOSA        CLOUDY    18  14  84 SW6       30.41F WCI  10
LA VETA PASS   CLOUDY    27  14  59 S6        30.41F WCI  20
SAGUACHE       CLOUDY    32  19  59 NW17      30.43S WCI  21
$$

COZ035-036-038>040-090900-
...NORTHERN COLORADO FRONT RANGE...

CITY           SKY/WX    TMP DP  RH WIND       PRES   REMARKS
DENVER INTL AP CLOUDY    28  19  69 S10       30.28F WCI  19
DMNS CITY PARK   N/A     31  21  66 SE10      30.30F WCI  22
AURORA         PTCLDY    30  21  71 S10       30.30F WCI  21
FRONT RANGE AP   N/A     23  18  80 S8        30.30F WCI  14
ERIE MUNI ARPT CLOUDY    26  21  82 CALM      30.29F
BOULDER MUN AP CLOUDY    32  23  69 CALM      30.28F
CENTENNIAL     CLOUDY    30  20  66 SE13      30.30S WCI  20
BROOMFIELD     CLOUDY    34  23  64 SW5       30.29F WCI  30
FORT COLLINS   CLOUDY    28  21  74 NE5       30.30S WCI  23
LONGMONT       CLOUDY    24  19  80 W3        30.31F
$$

COZ041-046-047-076>085-087-088-090900-
...PIKES PEAK/PALMER DIVIDE AND SOUTHERN FOOTHILLS...

CITY           SKY/WX    TMP DP  RH WIND       PRES   REMARKS
COLO. SPRINGS  CLOUDY    22  16  78 NE9       30.33F WCI  12
A. F. ACADEMY  CLOUDY    17  13  87 N9        30.32F WCI   5
SCHRIEVER AFB  NOT AVBL
ELLICOTT       NOT AVBL
FALCON         NOT AVBL
FORT CARSON    CLOUDY    25  20  80 NW16      30.31F WCI  12
LIMON          CLOUDY    26  18  71 W12       30.30F WCI  16
MONUMENT HILL  CLOUDY    27  18  69 S9        30.33S WCI  17
TRINIDAD       CLOUDY    29  19  66 SW10      30.34F WCI  20
$$

COZ042>045-048>051-090-091-090900-
...NORTHEAST COLORADO...

CITY           SKY/WX    TMP DP  RH WIND       PRES   REMARKS
GREELEY ARPT   CLOUDY    19  16  86 W3        30.30F
AKRON          CLEAR     34  24  67 NW18      30.24F WCI  23
BURLINGTON     CLEAR     30  22  72 NW13      30.24F WCI  20
WRAY           CLOUDY    35  27  74 W14       30.23F WCI  25
STERLING       CLEAR     36  28  75 NW17      30.23F
HOLYOKE        CLOUDY    37  28  70 W16G22    30.21S
FORT MORGAN    CLEAR     28  22  78 W10       30.28F WCI  18
$$

COZ086-089-092>099-090900-
...SOUTHEAST COLORADO...

CITY           SKY/WX    TMP DP  RH WIND       PRES   REMARKS
PUEBLO         CLOUDY    26  21  81 CALM      30.34F
LA JUNTA       CLEAR     30  23  75 W12       30.33F WCI  20
LAMAR          CLEAR     30  26  85 W9        30.29F WCI  22
SPRINGFIELD      N/A     30  23  75 W12       30.32R WCI  20
$$



USA.gov is the U.S. government's official web portal to all federal, state and local government web resources and services.